Location: Unspecified
(0.0000°N, 0.0000°E)
Time: 20:46:47
(UTC+00:00)

A-11 Canister half - Visible Passes

Search period start: 26 June 2017 00:00
Search period end: 06 July 2017 00:00
Orbit: 1517 x 1683 km, 47.2° (Epoch: 26 June)

Date Brightness Start Highest point End Pass type
(mag) Time Alt. Az. Time Alt. Az. Time Alt. Az.
27 Jun 11.2 22:44:49 10° N 22:44:59 10° N 22:44:59 10° N visible
28 Jun 11.1 22:22:17 10° N 22:22:59 12° N 22:22:59 12° N visible
29 Jun 11.0 21:59:49 10° N 22:01:00 13° NNE 22:01:00 13° NNE visible
30 Jun 10.9 21:37:23 10° N 21:39:06 13° NNE 21:39:06 13° NNE visible
01 Jul 10.8 21:15:03 10° NNE 21:17:14 13° NNE 21:17:14 13° NNE visible
02 Jul 10.8 20:52:51 10° NNE 20:55:24 13° NE 20:55:24 13° NE visible
02 Jul 11.1 22:52:46 10° NW 22:53:35 13° NW 22:53:35 13° NW visible
03 Jul 10.8 20:30:52 10° NNE 20:33:38 12° NE 20:33:38 12° NE visible
03 Jul 10.8 22:29:55 10° NNW 22:31:49 18° NNW 22:31:49 18° NNW visible
04 Jul 10.8 20:09:41 10° NE 20:10:53 10° NE 20:11:54 10° NE visible
04 Jul 10.6 22:07:04 10° NNW 22:10:06 23° NNW 22:10:06 23° NNW visible
05 Jul 10.2 21:44:14 10° NNW 21:48:25 29° NNW 21:48:25 29° NNW visible
